| time (UTC) | temp F | wind direction | speed MPH | gust MPH | rain 1hr in | rain 24hr in | rain mn in | humidity % | barometer mb |
| 20260507224022 | 47 | 50 | 0.0 | 3.0 | 0.00 | 0.00 | 0.00 | 89 | 1012.7 |
| 20260507223524 | 47 | 50 | 1.0 | 3.0 | 0.00 | 0.00 | 0.00 | 89 | 1012.7 |
| 20260507223024 | 48 | 50 | 1.0 | 2.0 | 0.00 | 0.00 | 0.00 | 89 | 1012.7 |
| 20260507222527 | 48 | 50 | 1.0 | 2.0 | 0.00 | 0.00 | 0.00 | 89 | 1012.7 |
| 20260507222028 | 48 | 50 | 0.0 | 2.0 | 0.00 | 0.00 | 0.00 | 89 | 1012.8 |
| 20260507221531 | 48 | 50 | 0.0 | 2.0 | 0.00 | 0.00 | 0.00 | 89 | 1012.8 |
| 20260507221031 | 48 | 50 | 1.0 | 2.0 | 0.00 | 0.00 | 0.00 | 88 | 1012.8 |
| 20260507220534 | 48 | 50 | 1.0 | 2.0 | 0.00 | 0.00 | 0.00 | 88 | 1012.8 |
| 20260507220035 | 48 | 50 | 0.0 | 2.0 | 0.00 | 0.00 | 0.00 | 88 | 1012.7 |
| 20260507215517 | 49 | 50 | 0.0 | 2.0 | 0.00 | 0.00 | 0.00 | 87 | 1012.7 |
| 20260507215019 | 49 | 50 | 0.0 | 2.0 | 0.00 | 0.00 | 0.00 | 87 | 1012.7 |
| 20260507214520 | 49 | 50 | 1.0 | 2.0 | 0.00 | 0.00 | 0.00 | 87 | 1012.6 |
| 20260507214027 | 49 | 50 | 1.0 | 3.0 | 0.00 | 0.00 | 0.00 | 86 | 1012.6 |
| 20260507213518 | 49 | 50 | 1.0 | 3.0 | 0.00 | 0.00 | 0.00 | 86 | 1012.6 |
| 20260507213020 | 50 | 49 | 1.0 | 2.0 | 0.00 | 0.00 | 0.00 | 85 | 1012.6 |
| 20260507212522 | 50 | 49 | 0.0 | 2.0 | 0.00 | 0.00 | 0.00 | 85 | 1012.6 |
| 20260507212024 | 50 | 49 | 0.0 | 2.0 | 0.00 | 0.00 | 0.00 | 85 | 1012.5 |
| 20260507211524 | 50 | 49 | 1.0 | 2.0 | 0.00 | 0.00 | 0.00 | 85 | 1012.4 |
| 20260507211031 | 51 | 49 | 1.0 | 3.0 | 0.00 | 0.00 | 0.00 | 84 | 1012.4 |
| 20260507210552 | 51 | 49 | 1.0 | 2.0 | 0.00 | 0.00 | 0.00 | 84 | 1012.4 |
| 20260507210052 | 51 | 49 | 1.0 | 2.0 | 0.00 | 0.00 | 0.00 | 83 | 1012.4 |
| 20260507205533 | 51 | 73 | 0.0 | 2.0 | 0.00 | 0.00 | 0.00 | 83 | 1012.3 |
| 20260507205034 | 51 | 73 | 1.0 | 3.0 | 0.00 | 0.00 | 0.00 | 83 | 1012.2 |
| 20260507204535 | 51 | 72 | 2.0 | 3.0 | 0.00 | 0.00 | 0.00 | 83 | 1012.1 |
| 20260507204017 | 52 | 71 | 1.0 | 2.0 | 0.00 | 0.00 | 0.00 | 82 | 1012.0 |
| 20260507203520 | 52 | 71 | 0.0 | 2.0 | 0.00 | 0.00 | 0.00 | 82 | 1012.0 |
| 20260507203020 | 52 | 71 | 2.0 | 4.0 | 0.00 | 0.00 | 0.00 | 81 | 1012.0 |
| 20260507202523 | 52 | 71 | 3.0 | 5.0 | 0.00 | 0.00 | 0.00 | 80 | 1011.9 |
| 20260507202024 | 53 | 307 | 0.0 | 2.0 | 0.00 | 0.00 | 0.00 | 79 | 1011.9 |
| 20260507201520 | 53 | 307 | 0.0 | 1.0 | 0.00 | 0.00 | 0.00 | 79 | 1011.9 |
| 20260507201021 | 54 | 307 | 0.0 | 1.0 | 0.00 | 0.00 | 0.00 | 79 | 1011.8 |
| 20260507200521 | 54 | 307 | 0.0 | 1.0 | 0.00 | 0.00 | 0.00 | 78 | 1011.7 |
| 20260507200023 | 54 | 307 | 0.0 | 2.0 | 0.00 | 0.00 | 0.00 | 78 | 1011.6 |
| 20260507195550 | 54 | 307 | 1.0 | 3.0 | 0.00 | 0.00 | 0.00 | 78 | 1011.7 |
| 20260507195030 | 54 | 307 | 1.0 | 3.0 | 0.00 | 0.00 | 0.00 | 78 | 1011.6 |
| 20260507194527 | 54 | 307 | 1.0 | 3.0 | 0.00 | 0.00 | 0.00 | 78 | 1011.5 |
| 20260507194049 | 54 | 307 | 2.0 | 3.0 | 0.00 | 0.00 | 0.00 | 78 | 1011.4 |
| 20260507193530 | 55 | 111 | 1.0 | 3.0 | 0.00 | 0.00 | 0.00 | 78 | 1011.4 |
| 20260507193030 | 55 | 112 | 1.0 | 3.0 | 0.00 | 0.00 | 0.00 | 78 | 1011.2 |
| 20260507192532 | 55 | 115 | 2.0 | 2.0 | 0.00 | 0.00 | 0.00 | 78 | 1011.2 |
| 20260507192033 | 55 | 115 | 0.0 | 4.0 | 0.00 | 0.00 | 0.00 | 78 | 1011.0 |
| 20260507191534 | 55 | 116 | 2.0 | 6.0 | 0.00 | 0.00 | 0.00 | 77 | 1010.9 |
| 20260507191036 | 56 | 88 | 3.0 | 6.0 | 0.00 | 0.00 | 0.00 | 75 | 1011.0 |
| 20260507190557 | 56 | 65 | 4.0 | 7.0 | 0.00 | 0.00 | 0.00 | 74 | 1011.1 |
| 20260507190019 | 57 | 166 | 2.0 | 2.0 | 0.00 | 0.00 | 0.00 | 71 | 1011.2 |
| 20260507185521 | 57 | 181 | 1.0 | 4.0 | 0.00 | 0.00 | 0.00 | 70 | 1011.2 |
| 20260507185043 | 57 | 182 | 2.0 | 5.0 | 0.00 | 0.00 | 0.00 | 69 | 1011.3 |
| 20260507184526 | 57 | 196 | 2.0 | 5.0 | 0.00 | 0.00 | 0.00 | 69 | 1011.3 |
| 20260507184026 | 58 | 186 | 1.0 | 4.0 | 0.00 | 0.00 | 0.00 | 69 | 1011.4 |
| 20260507183526 | 58 | 187 | 2.0 | 4.0 | 0.00 | 0.00 | 0.00 | 68 | 1011.3 |
| 20260507183048 | 58 | 220 | 1.0 | 5.0 | 0.00 | 0.00 | 0.00 | 67 | 1011.3 |
| 20260507182529 | 58 | 255 | 2.0 | 6.0 | 0.00 | 0.00 | 0.00 | 65 | 1011.3 |
| 20260507182031 | 58 | 197 | 4.0 | 9.0 | 0.00 | 0.00 | 0.00 | 65 | 1011.4 |
| 20260507181532 | 59 | 214 | 5.0 | 9.0 | 0.00 | 0.00 | 0.00 | 65 | 1011.4 |
| 20260507181033 | 59 | 231 | 4.0 | 9.0 | 0.00 | 0.00 | 0.00 | 65 | 1011.3 |
| 20260507180534 | 60 | 199 | 4.0 | 9.0 | 0.00 | 0.00 | 0.00 | 65 | 1011.3 |
| 20260507180037 | 60 | 7 | 5.0 | 9.0 | 0.00 | 0.00 | 0.00 | 64 | 1011.3 |
| 20260507175533 | 61 | 218 | 3.0 | 8.0 | 0.00 | 0.00 | 0.00 | 63 | 1011.2 |
| 20260507175033 | 62 | 253 | 4.0 | 8.0 | 0.00 | 0.00 | 0.00 | 62 | 1011.2 |
| 20260507174556 | 62 | 299 | 3.0 | 11.0 | 0.00 | 0.00 | 0.00 | 62 | 1011.1 |
| 20260507174056 | 63 | 185 | 6.0 | 11.0 | 0.00 | 0.00 | 0.00 | 60 | 1011.0 |
| 20260507173517 | 63 | 179 | 1.0 | 2.0 | 0.00 | 0.00 | 0.00 | 62 | 1011.0 |
| 20260507173020 | 63 | 87 | 0.0 | 3.0 | 0.00 | 0.00 | 0.00 | 62 | 1010.9 |
| 20260507172542 | 63 | 87 | 1.0 | 4.0 | 0.00 | 0.00 | 0.00 | 65 | 1010.9 |
| 20260507172022 | 63 | 105 | 2.0 | 7.0 | 0.00 | 0.00 | 0.00 | 60 | 1010.8 |
| 20260507171524 | 63 | 133 | 2.0 | 6.0 | 0.00 | 0.00 | 0.00 | 59 | 1010.7 |
| 20260507171028 | 63 | 119 | 2.0 | 7.0 | 0.00 | 0.00 | 0.00 | 59 | 1010.8 |
| 20260507170531 | 63 | 110 | 3.0 | 8.0 | 0.00 | 0.00 | 0.00 | 57 | 1010.9 |
| 20260507170032 | 63 | 99 | 3.0 | 8.0 | 0.00 | 0.00 | 0.00 | 58 | 1010.9 |
| 20260507165533 | 63 | 123 | 5.0 | 8.0 | 0.00 | 0.00 | 0.00 | 58 | 1010.9 |
| 20260507165032 | 63 | 99 | 3.0 | 8.0 | 0.00 | 0.00 | 0.00 | 58 | 1010.9 |
| 20260507164533 | 63 | 56 | 5.0 | 9.0 | 0.00 | 0.00 | 0.00 | 57 | 1010.9 |
| 20260507164034 | 64 | 104 | 5.0 | 9.0 | 0.00 | 0.00 | 0.00 | 54 | 1010.9 |
| 20260507163535 | 65 | 7 | 4.0 | 7.0 | 0.00 | 0.00 | 0.00 | 56 | 1010.9 |
| 20260507163017 | 65 | 144 | 2.0 | 6.0 | 0.00 | 0.00 | 0.00 | 51 | 1010.9 |
| 20260507162540 | 65 | 139 | 3.0 | 6.0 | 0.00 | 0.00 | 0.00 | 50 | 1010.9 |
| 20260507162021 | 65 | 222 | 1.0 | 4.0 | 0.00 | 0.00 | 0.00 | 52 | 1010.8 |
| 20260507161523 | 65 | 148 | 1.0 | 8.0 | 0.00 | 0.00 | 0.00 | 53 | 1010.8 |
| 20260507161024 | 66 | 7 | 3.0 | 8.0 | 0.00 | 0.00 | 0.00 | 50 | 1010.8 |
| 20260507160518 | 67 | 167 | 4.0 | 6.0 | 0.00 | 0.00 | 0.00 | 48 | 1010.6 |
| 20260507160025 | 67 | 184 | 2.0 | 9.0 | 0.00 | 0.00 | 0.00 | 51 | 1010.5 |
| 20260507155525 | 67 | 147 | 2.0 | 9.0 | 0.00 | 0.00 | 0.00 | 53 | 1010.3 |
| 20260507155026 | 66 | 7 | 4.0 | 10.0 | 0.00 | 0.00 | 0.00 | 55 | 1010.1 |
| 20260507154535 | 66 | 96 | 5.0 | 14.0 | 0.00 | 0.00 | 0.00 | 55 | 1010.0 |
| 20260507154034 | 66 | 122 | 6.0 | 14.0 | 0.00 | 0.00 | 0.00 | 54 | 1010.0 |
| 20260507153536 | 65 | 107 | 7.0 | 11.0 | 0.00 | 0.00 | 0.00 | 56 | 1009.8 |
| 20260507153028 | 65 | 110 | 7.0 | 11.0 | 0.00 | 0.00 | 0.00 | 55 | 1010.0 |
| 20260507152530 | 66 | 124 | 7.0 | 11.0 | 0.00 | 0.00 | 0.00 | 58 | 1010.1 |
| 20260507152031 | 65 | 99 | 7.0 | 11.0 | 0.00 | 0.00 | 0.00 | 55 | 1010.3 |
| 20260507151534 | 65 | 102 | 4.0 | 12.0 | 0.00 | 0.00 | 0.00 | 58 | 1010.4 |
| 20260507151100 | 65 | 100 | 6.0 | 14.0 | 0.00 | 0.00 | 0.00 | 58 | 1010.6 |
| 20260507150538 | 65 | 108 | 7.0 | 14.0 | 0.00 | 0.00 | 0.00 | 55 | 1010.7 |
| 20260507150018 | 65 | 111 | 5.0 | 10.0 | 0.00 | 0.00 | 0.00 | 55 | 1010.8 |
| 20260507145540 | 66 | 147 | 3.0 | 10.0 | 0.00 | 0.00 | 0.00 | 57 | 1010.9 |
| 20260507145021 | 66 | 130 | 2.0 | 7.0 | 0.00 | 0.00 | 0.00 | 62 | 1010.9 |
| 20260507144522 | 65 | 141 | 3.0 | 7.0 | 0.00 | 0.00 | 0.00 | 57 | 1010.9 |
| 20260507144022 | 65 | 166 | 4.0 | 10.0 | 0.00 | 0.00 | 0.00 | 58 | 1010.9 |
| 20260507143524 | 65 | 135 | 4.0 | 10.0 | 0.00 | 0.00 | 0.00 | 59 | 1010.9 |
| 20260507143022 | 65 | 143 | 5.0 | 10.0 | 0.00 | 0.00 | 0.00 | 59 | 1010.9 |
| 20260507142540 | 65 | 157 | 3.0 | 11.0 | 0.00 | 0.00 | 0.00 | 58 | 1010.9 |
| 20260507142020 | 65 | 110 | 3.0 | 16.0 | 0.00 | 0.00 | 0.00 | 60 | 1010.9 |
| 20260507141530 | 64 | 7 | 4.0 | 16.0 | 0.00 | 0.00 | 0.00 | 59 | 1010.9 |
| 20260507141029 | 64 | 120 | 3.0 | 11.0 | 0.00 | 0.00 | 0.00 | 62 | 1011.0 |
| 20260507140529 | 64 | 129 | 5.0 | 12.0 | 0.00 | 0.00 | 0.00 | 59 | 1011.1 |
| 20260507140031 | 64 | 119 | 4.0 | 12.0 | 0.00 | 0.00 | 0.00 | 61 | 1011.2 |
| 20260507135532 | 65 | 66 | 5.0 | 11.0 | 0.00 | 0.00 | 0.00 | 57 | 1011.1 |
| 20260507135024 | 64 | 190 | 4.0 | 11.0 | 0.00 | 0.00 | 0.00 | 59 | 1011.1 |
| 20260507134526 | 64 | 133 | 6.0 | 12.0 | 0.00 | 0.00 | 0.00 | 57 | 1011.2 |
| 20260507134027 | 63 | 99 | 4.0 | 9.0 | 0.00 | 0.00 | 0.00 | 65 | 1011.2 |
| 20260507133534 | 63 | 7 | 5.0 | 10.0 | 0.00 | 0.00 | 0.00 | 64 | 1011.2 |
| 20260507133053 | 63 | 90 | 4.0 | 9.0 | 0.00 | 0.00 | 0.00 | 65 | 1011.2 |
| 20260507132533 | 63 | 111 | 4.0 | 7.0 | 0.00 | 0.00 | 0.00 | 65 | 1011.3 |
| 20260507132033 | 63 | 127 | 4.0 | 10.0 | 0.00 | 0.00 | 0.00 | 65 | 1011.4 |
| 20260507131534 | 62 | 75 | 7.0 | 10.0 | 0.00 | 0.00 | 0.00 | 66 | 1011.5 |
| 20260507131103 | 63 | 105 | 7.0 | 13.0 | 0.00 | 0.00 | 0.00 | 64 | 1011.6 |
| 20260507130518 | 63 | 84 | 6.0 | 9.0 | 0.00 | 0.00 | 0.00 | 63 | 1011.7 |
| 20260507130020 | 62 | 7 | 5.0 | 9.0 | 0.00 | 0.00 | 0.00 | 64 | 1011.9 |
| 20260507125520 | 62 | 97 | 4.0 | 9.0 | 0.00 | 0.00 | 0.00 | 62 | 1012.1 |
| 20260507125047 | 62 | 94 | 5.0 | 10.0 | 0.00 | 0.00 | 0.00 | 63 | 1012.1 |
| 20260507124525 | 61 | 83 | 5.0 | 10.0 | 0.00 | 0.00 | 0.00 | 64 | 1012.2 |
| 20260507124026 | 61 | 218 | 3.0 | 8.0 | 0.00 | 0.00 | 0.00 | 65 | 1012.3 |
| 20260507123528 | 60 | 133 | 3.0 | 9.0 | 0.00 | 0.00 | 0.00 | 65 | 1012.4 |
| 20260507123028 | 60 | 134 | 4.0 | 9.0 | 0.00 | 0.00 | 0.00 | 63 | 1012.5 |
| 20260507122529 | 60 | 174 | 6.0 | 10.0 | 0.00 | 0.00 | 0.00 | 63 | 1012.6 |
| 20260507122030 | 61 | 128 | 4.0 | 11.0 | 0.00 | 0.00 | 0.00 | 65 | 1012.6 |
| 20260507121532 | 61 | 126 | 5.0 | 11.0 | 0.00 | 0.00 | 0.00 | 63 | 1012.6 |
| 20260507121033 | 61 | 160 | 4.0 | 8.0 | 0.00 | 0.00 | 0.00 | 65 | 1012.5 |
| 20260507120534 | 61 | 133 | 2.0 | 9.0 | 0.00 | 0.00 | 0.00 | 64 | 1012.4 |
| 20260507120029 | 61 | 118 | 3.0 | 10.0 | 0.00 | 0.00 | 0.00 | 64 | 1012.4 |
| 20260507115526 | 61 | 136 | 5.0 | 10.0 | 0.00 | 0.00 | 0.00 | 62 | 1012.6 |
| 20260507115054 | 62 | 132 | 3.0 | 14.0 | 0.00 | 0.00 | 0.00 | 61 | 1012.5 |
| 20260507114554 | 62 | 112 | 5.0 | 14.0 | 0.00 | 0.00 | 0.00 | 60 | 1012.5 |
| 20260507114051 | 63 | 93 | 3.0 | 11.0 | 0.00 | 0.00 | 0.00 | 62 | 1012.4 |
| 20260507113558 | 63 | 122 | 5.0 | 11.0 | 0.00 | 0.00 | 0.00 | 59 | 1012.3 |
| 20260507113038 | 64 | 93 | 4.0 | 10.0 | 0.00 | 0.00 | 0.00 | 59 | 1012.3 |
| 20260507112537 | 64 | 133 | 4.0 | 10.0 | 0.00 | 0.00 | 0.00 | 59 | 1012.3 |
| 20260507112038 | 65 | 141 | 5.0 | 11.0 | 0.00 | 0.00 | 0.00 | 57 | 1012.2 |
| 20260507111540 | 65 | 108 | 4.0 | 11.0 | 0.00 | 0.00 | 0.00 | 61 | 1012.2 |
| 20260507111020 | 65 | 131 | 5.0 | 11.0 | 0.00 | 0.00 | 0.00 | 59 | 1012.2 |
| 20260507110541 | 64 | 104 | 3.0 | 10.0 | 0.00 | 0.00 | 0.00 | 59 | 1012.2 |
| 20260507110038 | 64 | 118 | 6.0 | 10.0 | 0.00 | 0.00 | 0.00 | 58 | 1012.2 |
| 20260507105519 | 64 | 132 | 2.0 | 8.0 | 0.00 | 0.00 | 0.00 | 61 | 1012.2 |
| 20260507105021 | 63 | 141 | 2.0 | 8.0 | 0.00 | 0.00 | 0.00 | 60 | 1012.2 |
| 20260507104557 | 63 | 7 | 3.0 | 9.0 | 0.00 | 0.00 | 0.00 | 60 | 1012.2 |
| 20260507104038 | 63 | 87 | 5.0 | 9.0 | 0.00 | 0.00 | 0.00 | 59 | 1012.2 |
| 20260507103520 | 63 | 103 | 4.0 | 8.0 | 0.00 | 0.00 | 0.00 | 59 | 1012.2 |
| 20260507103022 | 63 | 133 | 3.0 | 6.0 | 0.00 | 0.00 | 0.00 | 66 | 1012.3 |
| 20260507102521 | 62 | 90 | 1.0 | 8.0 | 0.00 | 0.00 | 0.00 | 68 | 1012.4 |
| 20260507102022 | 62 | 103 | 3.0 | 8.0 | 0.00 | 0.00 | 0.00 | 70 | 1012.4 |
| 20260507101522 | 61 | 37 | 2.0 | 4.0 | 0.00 | 0.00 | 0.00 | 68 | 1012.4 |
| 20260507101024 | 61 | 78 | 1.0 | 4.0 | 0.00 | 0.00 | 0.00 | 69 | 1012.6 |
| 20260507100525 | 60 | 83 | 2.0 | 7.0 | 0.00 | 0.00 | 0.00 | 72 | 1012.7 |
| 20260507100026 | 59 | 68 | 2.0 | 7.0 | 0.00 | 0.00 | 0.00 | 73 | 1012.7 |
| 20260507095526 | 59 | 70 | 3.0 | 7.0 | 0.00 | 0.00 | 0.00 | 74 | 1012.8 |
| 20260507095028 | 58 | 137 | 3.0 | 6.0 | 0.00 | 0.00 | 0.00 | 75 | 1012.9 |
| 20260507094549 | 57 | 137 | 1.0 | 3.0 | 0.00 | 0.00 | 0.00 | 78 | 1012.9 |
| 20260507094029 | 56 | 72 | 2.0 | 3.0 | 0.00 | 0.00 | 0.00 | 80 | 1013.0 |
| 20260507093550 | 56 | 74 | 1.0 | 3.0 | 0.00 | 0.00 | 0.00 | 82 | 1013.1 |
| 20260507093038 | 55 | 73 | 1.0 | 3.0 | 0.00 | 0.00 | 0.00 | 83 | 1013.1 |
| 20260507092556 | 54 | 74 | 2.0 | 3.0 | 0.00 | 0.00 | 0.00 | 86 | 1013.2 |
| 20260507092017 | 53 | 108 | 2.0 | 3.0 | 0.00 | 0.00 | 0.00 | 87 | 1013.1 |
| 20260507091538 | 52 | 109 | 1.0 | 3.0 | 0.00 | 0.00 | 0.00 | 88 | 1013.2 |
| 20260507091031 | 52 | 118 | 2.0 | 3.0 | 0.00 | 0.00 | 0.00 | 89 | 1013.3 |
| 20260507090532 | 52 | 178 | 2.0 | 3.0 | 0.00 | 0.00 | 0.00 | 92 | 1013.3 |
| 20260507090034 | 51 | 179 | 1.0 | 3.0 | 0.00 | 0.00 | 0.00 | 92 | 1013.3 |
| 20260507085536 | 51 | 203 | 2.0 | 4.0 | 0.00 | 0.00 | 0.00 | 94 | 1013.4 |
| 20260507085018 | 51 | 279 | 1.0 | 4.0 | 0.00 | 0.00 | 0.00 | 95 | 1013.4 |
| 20260507084521 | 51 | 256 | 2.0 | 3.0 | 0.00 | 0.00 | 0.00 | 96 | 1013.5 |
| 20260507084022 | 50 | 247 | 2.0 | 3.0 | 0.00 | 0.00 | 0.00 | 96 | 1013.5 |
| 20260507083520 | 50 | 274 | 1.0 | 3.0 | 0.00 | 0.00 | 0.00 | 96 | 1013.5 |
| 20260507083041 | 49 | 277 | 1.0 | 2.0 | 0.00 | 0.00 | 0.00 | 96 | 1013.5 |
| 20260507082544 | 49 | 326 | 1.0 | 3.0 | 0.00 | 0.00 | 0.00 | 96 | 1013.6 |
| 20260507082046 | 48 | 83 | 1.0 | 3.0 | 0.00 | 0.00 | 0.00 | 96 | 1013.6 |
| 20260507081524 | 47 | 85 | 1.0 | 3.0 | 0.00 | 0.00 | 0.00 | 96 | 1013.7 |
| 20260507081026 | 46 | 122 | 1.0 | 3.0 | 0.00 | 0.00 | 0.00 | 96 | 1013.8 |
| 20260507080528 | 46 | 91 | 1.0 | 3.0 | 0.00 | 0.00 | 0.00 | 96 | 1013.8 |
| 20260507080030 | 46 | 92 | 2.0 | 3.0 | 0.00 | 0.00 | 0.00 | 96 | 1013.8 |
| 20260507075532 | 47 | 335 | 0.0 | 1.0 | 0.00 | 0.00 | 0.00 | 96 | 1013.8 |
| 20260507075033 | 46 | 326 | 0.0 | 1.0 | 0.00 | 0.00 | 0.00 | 96 | 1013.8 |
| 20260507074535 | 45 | 327 | 0.0 | 1.0 | 0.00 | 0.00 | 0.00 | 96 | 1013.7 |
| 20260507074018 | 44 | 327 | 0.0 | 1.0 | 0.00 | 0.00 | 0.00 | 96 | 1013.7 |
| 20260507073519 | 44 | 327 | 0.0 | 2.0 | 0.00 | 0.00 | 0.00 | 96 | 1013.7 |
| 20260507073020 | 44 | 326 | 1.0 | 2.0 | 0.00 | 0.00 | 0.00 | 96 | 1013.7 |
| 20260507072523 | 43 | 326 | 0.0 | 2.0 | 0.00 | 0.00 | 0.00 | 96 | 1013.7 |
| 20260507072052 | 43 | 326 | 0.0 | 2.0 | 0.00 | 0.00 | 0.00 | 96 | 1013.7 |
| 20260507071531 | 43 | 58 | 0.0 | 0.0 | 0.00 | 0.00 | 0.00 | 96 | 1013.7 |
| 20260507071034 | 43 | 58 | 0.0 | 1.0 | 0.00 | 0.00 | 0.00 | 96 | 1013.7 |
| 20260507070556 | 43 | 58 | 0.0 | 1.0 | 0.00 | 0.00 | 0.00 | 96 | 1013.7 |
| 20260507070055 | 42 | 58 | 0.0 | 2.0 | 0.00 | 0.00 | 0.00 | 96 | 1013.7 |
| 20260507065536 | 42 | 59 | 1.0 | 2.0 | 0.00 | 0.04 | 0.00 | 96 | 1013.7 |
| 20260507065017 | 42 | 59 | 0.0 | 3.0 | 0.00 | 0.04 | 0.00 | 96 | 1013.7 |
| 20260507064518 | 42 | 60 | 0.0 | 3.0 | 0.00 | 0.04 | 0.00 | 96 | 1013.8 |
| 20260507064019 | 42 | 60 | 1.0 | 2.0 | 0.00 | 0.04 | 0.00 | 96 | 1013.8 |
| 20260507063521 | 42 | 60 | 0.0 | 2.0 | 0.00 | 0.04 | 0.00 | 96 | 1013.8 |
| 20260507063021 | 42 | 60 | 0.0 | 1.0 | 0.00 | 0.04 | 0.00 | 96 | 1013.8 |
| 20260507062524 | 42 | 60 | 0.0 | 1.0 | 0.00 | 0.04 | 0.00 | 96 | 1013.8 |
| 20260507062024 | 42 | 60 | 0.0 | 2.0 | 0.00 | 0.04 | 0.00 | 96 | 1013.9 |
| 20260507061526 | 42 | 60 | 0.0 | 2.0 | 0.00 | 0.04 | 0.00 | 96 | 1013.8 |
| 20260507061027 | 42 | 60 | 0.0 | 1.0 | 0.00 | 0.04 | 0.00 | 96 | 1013.9 |
| 20260507060528 | 42 | 60 | 0.0 | 2.0 | 0.00 | 0.04 | 0.00 | 95 | 1013.8 |
| 20260507060027 | 42 | 60 | 0.0 | 2.0 | 0.00 | 0.04 | 0.00 | 95 | 1013.8 |
| 20260507055525 | 42 | 60 | 0.0 | 2.0 | 0.00 | 0.04 | 0.00 | 95 | 1013.8 |
| 20260507055027 | 42 | 60 | 1.0 | 2.0 | 0.00 | 0.04 | 0.00 | 95 | 1013.8 |
| 20260507054531 | 42 | 62 | 1.0 | 3.0 | 0.00 | 0.04 | 0.00 | 95 | 1013.8 |
| 20260507054031 | 42 | 62 | 1.0 | 3.0 | 0.00 | 0.04 | 0.00 | 95 | 1013.8 |
| 20260507053532 | 42 | 64 | 1.0 | 3.0 | 0.00 | 0.04 | 0.00 | 95 | 1013.8 |
| 20260507053032 | 42 | 64 | 1.0 | 3.0 | 0.00 | 0.04 | 0.00 | 95 | 1013.8 |
| 20260507052534 | 42 | 57 | 0.0 | 2.0 | 0.00 | 0.04 | 0.00 | 95 | 1013.9 |
| 20260507052036 | 42 | 57 | 1.0 | 2.0 | 0.00 | 0.04 | 0.00 | 95 | 1013.9 |
| 20260507051538 | 42 | 57 | 1.0 | 3.0 | 0.00 | 0.04 | 0.00 | 95 | 1013.8 |
| 20260507051017 | 42 | 57 | 0.0 | 3.0 | 0.00 | 0.04 | 0.00 | 95 | 1013.8 |
| 20260507050519 | 42 | 52 | 0.0 | 2.0 | 0.00 | 0.04 | 0.00 | 95 | 1013.8 |
| 20260507050020 | 42 | 52 | 0.0 | 3.0 | 0.00 | 0.04 | 0.00 | 95 | 1013.7 |
| 20260507045521 | 42 | 51 | 1.0 | 3.0 | 0.00 | 0.04 | 0.00 | 95 | 1013.7 |
| 20260507045019 | 42 | 152 | 1.0 | 2.0 | 0.00 | 0.04 | 0.00 | 95 | 1013.8 |
| 20260507044520 | 42 | 157 | 0.0 | 2.0 | 0.00 | 0.04 | 0.00 | 95 | 1013.9 |
| 20260507044043 | 42 | 162 | 0.0 | 2.0 | 0.00 | 0.04 | 0.00 | 95 | 1013.9 |
| 20260507043525 | 42 | 178 | 0.0 | 0.0 | 0.00 | 0.04 | 0.00 | 95 | 1014.0 |
| 20260507043029 | 42 | 179 | 0.0 | 0.0 | 0.00 | 0.04 | 0.00 | 95 | 1014.0 |
| 20260507042530 | 42 | 179 | 0.0 | 0.0 | 0.00 | 0.04 | 0.00 | 95 | 1013.9 |
| 20260507042032 | 42 | 180 | 0.0 | 0.0 | 0.00 | 0.04 | 0.00 | 95 | 1013.9 |
| 20260507041533 | 42 | 180 | 0.0 | 0.0 | 0.00 | 0.04 | 0.00 | 95 | 1014.0 |
| 20260507041034 | 42 | 180 | 0.0 | 0.0 | 0.00 | 0.04 | 0.00 | 95 | 1014.0 |
| 20260507040529 | 42 | 180 | 0.0 | 0.0 | 0.00 | 0.04 | 0.00 | 95 | 1014.0 |
| 20260507040029 | 42 | 180 | 0.0 | 0.0 | 0.00 | 0.04 | 0.00 | 95 | 1014.0 |
| 20260507035552 | 42 | 180 | 0.0 | 0.0 | 0.00 | 0.04 | 0.00 | 95 | 1014.0 |
| 20260507035032 | 42 | 180 | 0.0 | 1.0 | 0.00 | 0.04 | 0.00 | 95 | 1014.0 |
| 20260507034533 | 42 | 180 | 0.0 | 1.0 | 0.00 | 0.04 | 0.00 | 95 | 1014.0 |
| 20260507034034 | 42 | 182 | 0.0 | 1.0 | 0.00 | 0.04 | 0.00 | 95 | 1014.1 |
| 20260507033537 | 42 | 182 | 0.0 | 0.0 | 0.00 | 0.04 | 0.00 | 95 | 1014.1 |
| 20260507033018 | 42 | 182 | 0.0 | 0.0 | 0.00 | 0.04 | 0.00 | 95 | 1014.2 |
| 20260507032521 | 42 | 182 | 0.0 | 0.0 | 0.00 | 0.04 | 0.00 | 95 | 1014.2 |
| 20260507032024 | 41 | 182 | 0.0 | 0.0 | 0.00 | 0.04 | 0.00 | 95 | 1014.2 |
| 20260507031526 | 41 | 182 | 0.0 | 0.0 | 0.00 | 0.04 | 0.00 | 95 | 1014.1 |
| 20260507031026 | 41 | 182 | 0.0 | 1.0 | 0.00 | 0.04 | 0.00 | 95 | 1014.2 |
| 20260507030526 | 41 | 182 | 0.0 | 2.0 | 0.00 | 0.04 | 0.00 | 95 | 1014.1 |
| 20260507030026 | 41 | 182 | 1.0 | 2.0 | 0.00 | 0.04 | 0.00 | 95 | 1014.2 |
| 20260507025526 | 41 | 93 | 0.0 | 0.0 | 0.00 | 0.04 | 0.00 | 95 | 1014.1 |
| 20260507025027 | 41 | 93 | 0.0 | 0.0 | 0.00 | 0.04 | 0.00 | 95 | 1014.0 |
| 20260507024527 | 40 | 93 | 0.0 | 0.0 | 0.00 | 0.04 | 0.00 | 95 | 1014.1 |
| 20260507024030 | 40 | 93 | 0.0 | 1.0 | 0.00 | 0.04 | 0.00 | 95 | 1014.1 |
| 20260507023532 | 40 | 93 | 0.0 | 1.0 | 0.00 | 0.04 | 0.00 | 95 | 1014.1 |
| 20260507023032 | 40 | 93 | 0.0 | 1.0 | 0.00 | 0.04 | 0.00 | 95 | 1014.2 |
| 20260507022536 | 40 | 93 | 0.0 | 1.0 | 0.00 | 0.04 | 0.00 | 95 | 1014.2 |
| 20260507022034 | 39 | 93 | 0.0 | 1.0 | 0.00 | 0.04 | 0.00 | 95 | 1014.2 |
| 20260507021535 | 39 | 93 | 0.0 | 0.0 | 0.00 | 0.04 | 0.00 | 95 | 1014.2 |
| 20260507021018 | 39 | 93 | 0.0 | 0.0 | 0.00 | 0.04 | 0.00 | 95 | 1014.3 |
| 20260507020521 | 39 | 93 | 0.0 | 0.0 | 0.00 | 0.04 | 0.00 | 95 | 1014.3 |
| 20260507020022 | 38 | 93 | 0.0 | 0.0 | 0.00 | 0.04 | 0.00 | 95 | 1014.4 |
| 20260507015525 | 38 | 93 | 0.0 | 0.0 | 0.00 | 0.04 | 0.00 | 94 | 1014.4 |
| 20260507015024 | 38 | 94 | 0.0 | 0.0 | 0.00 | 0.04 | 0.00 | 94 | 1014.5 |
| 20260507014531 | 38 | 94 | 0.0 | 0.0 | 0.00 | 0.04 | 0.00 | 94 | 1014.4 |
| 20260507014032 | 38 | 94 | 0.0 | 0.0 | 0.00 | 0.04 | 0.00 | 94 | 1014.4 |
| 20260507013533 | 38 | 94 | 0.0 | 1.0 | 0.00 | 0.04 | 0.00 | 94 | 1014.4 |
| 20260507013033 | 38 | 94 | 0.0 | 1.0 | 0.00 | 0.04 | 0.00 | 94 | 1014.4 |
| 20260507012533 | 38 | 94 | 0.0 | 1.0 | 0.00 | 0.04 | 0.00 | 94 | 1014.4 |
| 20260507012032 | 38 | 93 | 0.0 | 0.0 | 0.00 | 0.04 | 0.00 | 94 | 1014.5 |
| 20260507011534 | 38 | 93 | 0.0 | 0.0 | 0.00 | 0.04 | 0.00 | 94 | 1014.5 |
| 20260507011034 | 39 | 93 | 0.0 | 1.0 | 0.00 | 0.04 | 0.00 | 94 | 1014.6 |
| 20260507010535 | 39 | 93 | 0.0 | 2.0 | 0.00 | 0.04 | 0.00 | 94 | 1014.5 |
| 20260507010057 | 39 | 93 | 0.0 | 0.0 | 0.00 | 0.04 | 0.00 | 94 | 1014.5 |
| 20260507005536 | 39 | 93 | 0.0 | 0.0 | 0.00 | 0.04 | 0.00 | 94 | 1014.6 |
| 20260507005018 | 39 | 93 | 0.0 | 0.0 | 0.00 | 0.04 | 0.00 | 94 | 1014.7 |
| 20260507004541 | 39 | 93 | 0.0 | 0.0 | 0.00 | 0.04 | 0.00 | 94 | 1014.7 |
| 20260507004021 | 39 | 93 | 0.0 | 1.0 | 0.00 | 0.04 | 0.00 | 94 | 1014.7 |
| 20260507003549 | 39 | 93 | 0.0 | 1.0 | 0.00 | 0.04 | 0.00 | 94 | 1014.8 |
| 20260507003028 | 39 | 93 | 0.0 | 2.0 | 0.00 | 0.04 | 0.00 | 94 | 1014.8 |
| 20260507002529 | 39 | 94 | 1.0 | 2.0 | 0.00 | 0.04 | 0.00 | 94 | 1014.9 |
| 20260507002030 | 40 | 94 | 0.0 | 0.0 | 0.00 | 0.04 | 0.00 | 94 | 1014.8 |
| 20260507001529 | 40 | 94 | 0.0 | 0.0 | 0.00 | 0.04 | 0.00 | 94 | 1014.9 |
| 20260507001030 | 40 | 94 | 0.0 | 1.0 | 0.00 | 0.04 | 0.00 | 94 | 1014.9 |
| 20260507000531 | 40 | 94 | 0.0 | 1.0 | 0.00 | 0.04 | 0.00 | 94 | 1014.9 |
| 20260507000032 | 40 | 94 | 0.0 | 0.0 | 0.00 | 0.04 | 0.00 | 94 | 1014.9 |
| 20260506235535 | 40 | 94 | 0.0 | 0.0 | 0.00 | 0.04 | 0.00 | 94 | 1014.9 |
| 20260506235036 | 40 | 94 | 0.0 | 0.0 | 0.00 | 0.04 | 0.00 | 94 | 1014.9 |
| 20260506234518 | 40 | 94 | 0.0 | 0.0 | 0.00 | 0.04 | 0.00 | 94 | 1014.9 |
| 20260506234020 | 40 | 94 | 0.0 | 0.0 | 0.00 | 0.04 | 0.00 | 94 | 1014.9 |
| 20260506233521 | 41 | 94 | 0.0 | 0.0 | 0.00 | 0.04 | 0.00 | 93 | 1015.0 |
| 20260506233018 | 41 | 94 | 0.0 | 0.0 | 0.00 | 0.04 | 0.00 | 93 | 1015.0 |
| 20260506232541 | 41 | 94 | 0.0 | 0.0 | 0.00 | 0.04 | 0.00 | 93 | 1015.0 |
| 20260506232020 | 41 | 94 | 0.0 | 0.0 | 0.00 | 0.04 | 0.00 | 93 | 1015.0 |
| 20260506231521 | 41 | 94 | 0.0 | 1.0 | 0.00 | 0.04 | 0.00 | 93 | 1015.0 |
| 20260506231024 | 41 | 94 | 0.0 | 1.0 | 0.00 | 0.04 | 0.00 | 93 | 1015.1 |
| 20260506230526 | 41 | 94 | 0.0 | 0.0 | 0.00 | 0.04 | 0.00 | 93 | 1015.0 |
| 20260506230019 | 41 | 94 | 0.0 | 1.0 | 0.00 | 0.04 | 0.00 | 93 | 1015.0 |
| 20260506225520 | 41 | 94 | 0.0 | 2.0 | 0.00 | 0.04 | 0.00 | 93 | 1015.1 |
| 20260506225041 | 41 | 94 | 1.0 | 2.0 | 0.00 | 0.04 | 0.00 | 93 | 1015.1 |
| 20260506224522 | 42 | 94 | 0.0 | 1.0 | 0.00 | 0.04 | 0.00 | 92 | 1015.1 |